CAPE
0 0 0 0 0 0 0 0 0 0 0 0 0 0 0 0 0 0 0 0 0 0 0 0 0 0 0 0 0 0 0 0 0 0 0 0 0 0 0 0 0 0 0
0 0 0 0 0 0 0 0 0 0 0 0 0 0 0 0 0 0 0 0 0 0 0 0 0 0 0 0 0 0 0 0 0 0 0 0 0 0 0 0 0 0 0
0 0 0 0 0 0 0 0 0 0 0 0 0 0 0 0 0 0 0 4 2 0 0 0 0 0 0 0 0 0 0 0 0 0 0 0 0 0 0 0 0 0 0
0 0 0 0 0 2 3 0 0 0 0 0 0 0 0 0 0 6 20 18 0 0 0 0 0 0 0 0 0 0 0 0 0 0 0 0 0 0 0 0 0 0 0
0 0 0 0 0 0 1 0 2 0 0 0 0 0 0 0 0 0 1 3 0 0 0 0 0 0 0 0 0 0 0 0 0 0 0 0 0 0 0 0 0 0 0
0 0 0 0 0 0 0 0 0 0 0 0 0 0 0 0 0 0 0 5 7 2 0 0 0 3 3 6 25 3 0 0 0 0 0 0 0 0 0 0 0 0 0
0 0 0 0 0 0 0 0 1 3 7 4 0 0 0 0 1 2 2 1 0 0 0 0 2 3 2 8 4 29 18 0 0 0 0 0 0 0 0 0 0 0 0
0 0 0 0 0 0 0 0 0 3 6 9 0 0 0 0 2 9 3 1 0 0 0 0 3 2 4 5 3 6 3 16 2 0 0 0 0 0 0 0 0 0 0
2 1 6 1 4 5 4 5 4 5 3 0 0 0 0 0 0 1 0 0 0 0 0 3 2 5 10 6 4 15 1 2 0 0 0 0 0 0 0 0 0 0 0
2 5 8 1 8 1 1 1 2 3 19 10 0 0 0 0 0 0 0 0 0 2 4 6 5 11 15 2 2 1 2 0 0 0 0 0 0 0 0 0 0 0 0
2 10 13 7 2 2 1 5 3 3 7 15 10 0 0 0 0 0 0 1 0 7 3 5 8 12 11 6 12 3 1 0 0 0 0 0 0 0 0 0 0 0 0
10 4 6 4 1 3 3 1 5 8 2 0 0 0 0 0 0 0 4 3 18 23 14 1 2 6 8 7 23 2 2 0 0 0 0 0 0 0 0 0 0 0 0
4 3 3 2 0 3 4 8 3 3 1 0 0 0 0 0 0 0 3 18 15 15 10 6 1 1 5 27 36 2 5 0 0 0 0 0 0 0 0 0 0 0 0
4 2 2 3 1 1 1 3 8 5 5 3 2 0 0 0 0 1 3 2 1 3 8 21 13 2 32 0 1 1 0 0 0 0 0 0 0 0 0 0 1 1 1
2 1 1 2 1 1 1 3 4 4 1 0 0 0 1 1 1 8 13 7 8 1 2 9 14 12 1 1 0 0 0 0 0 0 0 0 0 0 0 0 2 1 5
2 2 1 2 2 2 2 1 1 4 7 12 9 12 12 15 10 5 10 8 12 19 4 1 1 1 0 0 0 0 0 0 0 0 0 0 0 1 2 2 1 2 4
2 2 2 2 1 1 2 2 1 1 0 2 5 5 3 1 9 2 3 10 6 0 1 1 0 0 0 0 0 0 0 0 0 0 0 1 1 1 2 1 0 7 6
3 3 2 2 2 3 2 0 2 1 2 1 0 0 3 15 16 3 0 0 0 0 0 0 0 0 0 0 0 0 0 0 0 0 1 1 2 2 1 0 2 7 6
2 2 2 2 2 3 2 1 1 1 2 1 10 10 3 2 3 0 0 0 0 0 0 0 0 0 0 0 0 0 0 0 0 0 0 1 1 1 0 0 10 11 23
1 2 2 2 3 2 0 0 0 0 0 2 1 1 0 0 1 0 0 0 0 0 0 0 0 0 0 0 0 0 0 0 0 0 1 1 1 1 0 0 15 18 24
1 2 2 2 2 2 2 0 3 4 3 1 2 0 0 1 1 1 1 0 0 0 0 0 0 0 0 0 0 0 0 0 0 0 1 1 1 1 1 0 0 1 3
2 2 2 2 2 2 2 1 1 1 1 1 1 1 0 0 1 2 2 1 0 1 1 0 0 0 0 0 0 0 0 0 0 0 1 1 1 1 2 0 0 1 2
2 2 2 2 2 2 3 2 2 1 1 1 1 1 1 1 1 2 2 0 0 1 0 0 0 0 0 0 0 0 0 0 0 0 1 2 2 2 2 1 0 0 1
1 2 2 2 2 2 2 2 2 3 2 2 2 1 2 4 3 2 2 3 2 0 0 0 0 0 0 0 0 0 0 0 0 0 0 2 2 2 2 2 1 0 1
3 2 2 2 2 2 1 2 2 2 3 2 1 2 3 3 2 2 2 2 0 0 0 0 0 0 0 0 0 0 0 0 0 0 0 1 2 2 2 2 2 0 0
2 2 2 2 2 2 2 1 1 1 2 2 3 3 3 3 2 1 1 0 0 0 0 1 0 0 0 1 1 0 0 0 0 1 0 1 1 1 2 3 2 1 0
CIN
0 0 0 0 0 0 0 0 0 0 0 0 0 0 0 0 0 0 0 0 0 0 0 0 0 0 0 0 0 0 0 0 0 0 0 0 0 0 0 0 0 0 0
0 0 0 0 0 0 0 0 0 0 0 0 0 0 0 0 0 0 0 0 0 0 0 0 0 0 0 0 0 0 0 0 0 0 0 0 0 0 0 0 0 0 0
0 0 0 0 0 0 0 0 0 0 0 0 0 0 0 0 0 0 0 -6 -10 0 0 0 0 0 0 0 0 0 0 0 0 0 0 0 0 0 0 0 0 0 0
0 0 0 0 0 -2 -1 0 0 0 0 0 0 0 0 0 -8 -22 -15 -8 0 0 0 0 0 0 0 0 0 0 0 0 0 0 0 0 0 0 0 0 0 0 0
0 0 0 0 0 0 0 -1 -2 0 0 0 0 0 0 0 -6 0 -21 -13 0 0 0 0 0 0 0 -1 0 0 0 0 0 0 0 0 0 0 0 0 0 0 0
0 0 0 0 0 0 0 0 0 0 0 0 0 0 0 0 0 0 0 -1 -1 -1 0 0 0 0 -1 -1 -68 -1 0 0 0 0 0 0 0 0 0 0 0 0 0
0 0 0 0 0 0 0 0 0 0 -3 -2 0 0 0 0 -29 -12 -6 -1 -1 0 0 0 -1 -1 -2 -1 -1 -7 -1 0 0 0 0 0 0 0 0 0 0 0 0
0 0 -2 0 0 0 -1 0 -2 -1 -1 -1 -2 0 0 0 -31 -8 -2 -1 0 0 0 0 -2 -1 -1 -2 -1 -1 -1 -4 0 -1 0 0 0 0 0 0 0 0 0
0 -2 -1 0 0 -2 -3 0 -1 0 -3 0 0 0 0 0 -8 -7 0 0 0 0 0 -4 -1 -2 -1 -2 -3 0 0 0 0 0 0 0 0 0 0 0 0 0 0
0 0 0 0 0 0 0 0 0 0 0 0 0 0 0 0 0 0 0 0 0 0 0 -1 -1 -1 0 -1 -1 -1 0 0 0 0 0 0 0 0 0 0 0 0 0
0 0 0 0 0 0 0 0 0 0 -1 0 0 0 0 0 0 0 0 -1 -1 0 -1 -1 -1 -1 -1 0 -1 -12 0 0 0 0 0 0 0 0 0 0 0 0 0
0 0 -1 0 -1 0 0 0 -1 0 0 -1 0 0 0 0 0 0 -2 -1 -1 0 0 -3 -1 -1 -1 -1 -1 -3 0 0 0 0 0 0 0 0 0 0 0 0 0
0 -1 0 0 0 0 -1 0 -3 0 0 0 0 0 0 0 0 0 -2 -1 -1 0 0 -1 -1 -1 0 0 -22 0 -3 0 0 0 0 0 0 0 0 0 0 0 0
-1 0 0 0 0 0 -1 -1 -2 -7 -12 -7 -4 0 0 0 0 -1 0 0 0 0 0 0 0 -1 0 -9 -3 -4 0 0 0 0 0 0 0 0 0 0 0 0 0
0 0 0 0 0 0 0 0 -1 -6 -12 -9 0 0 -1 0 0 -1 0 0 0 -2 -1 -1 0 0 0 0 0 0 0 0 0 0 0 0 0 0 0 0 0 0 0
0 0 0 0 0 0 0 -1 0 0 -1 -1 -1 -1 -1 -1 0 0 0 0 0 0 0 0 0 0 0 0 0 0 0 0 0 0 0 0 0 0 0 0 0 0 -1
0 0 0 0 0 0 0 0 0 -5 -8 -2 -1 0 0 0 0 -1 0 0 0 0 0 0 0 0 0 0 0 0 0 0 0 0 0 0 0 0 0 0 -1 0 -6
0 0 0 0 0 0 0 0 0 0 0 0 0 0 -1 0 0 0 0 0 0 0 0 0 0 0 0 0 0 0 0 0 0 0 0 0 0 0 0 0 0 -8 -6
0 0 0 0 0 0 0 -2 -2 0 0 0 -1 0 -1 0 0 -2 0 0 0 0 0 0 0 0 0 0 0 0 0 0 0 0 0 0 0 0 0 0 -9 -16 -1
0 0 0 0 0 0 0 0 0 0 0 0 0 0 0 0 0 0 0 0 0 0 0 0 0 0 0 0 0 0 0 0 0 0 0 0 0 0 0 0 -1 -1 0
0 0 0 0 0 0 0 0 0 0 0 0 0 0 0 0 0 0 0 0 0 0 0 0 0 0 0 0 0 0 0 0 0 0 0 0 0 0 0 0 0 -27 -4
0 0 0 0 0 0 0 0 0 0 0 0 0 0 0 0 0 0 0 0 0 -1 0 0 0 0 0 0 0 0 0 0 0 0 0 0 0 0 0 0 0 0 -2
0 0 0 0 0 0 0 0 0 0 0 0 0 0 0 0 0 0 0 0 0 0 0 0 0 0 0 0 0 0 0 0 0 0 0 0 0 0 0 0 0 0 0
0 0 0 0 0 0 0 0 0 0 0 0 0 0 0 0 0 0 0 0 0 0 0 0 0 0 0 0 0 0 0 0 0 0 0 0 0 0 0 0 0 0 0
0 0 0 0 0 0 0 0 0 0 0 0 0 0 0 0 0 0 0 0 0 0 0 0 0 0 0 0 0 0 0 0 -2 0 0 0 0 0 0 0 0 0 0
0 0 0 0 0 0 0 0 0 0 0 0 0 0 0 0 0 0 0 -1 0 -1 0 0 0 0 0 0 0 0 0 0 -4 -14 0 0 0 0 0 0 0 0 0
Wind_Speed
49 48 47 47 45 42 43 44 44 43 39 37 37 38 38 37 36 36 38 39 39 39 38 39 42 41 42 43 43 44 47 47 50 42 34 30 29 28 27 25 24 24 25
49 48 46 45 41 43 43 39 39 39 36 36 36 37 37 35 37 39 41 40 37 38 39 39 41 39 43 43 42 44 46 46 48 47 38 34 33 30 27 25 24 24 26
47 46 45 43 43 42 38 36 36 35 36 36 37 37 37 36 37 37 40 37 36 37 38 39 40 40 42 42 42 43 44 46 48 46 41 34 33 31 29 28 27 27 28
47 46 44 44 41 40 37 37 32 31 34 36 39 41 38 35 33 32 35 36 37 38 39 39 40 39 41 42 42 43 42 44 46 46 42 37 35 32 31 29 31 30 32
46 46 44 42 41 39 37 35 32 29 32 35 40 39 39 37 34 33 35 37 38 39 40 39 40 38 40 41 41 42 41 43 42 46 43 40 36 34 34 30 31 30 31
45 45 43 43 42 40 37 35 34 28 28 32 38 39 40 37 34 35 37 38 38 39 40 39 38 39 40 41 43 43 42 43 42 43 43 43 37 34 31 30 29 30 34
45 44 43 40 38 37 36 34 33 29 28 28 34 39 41 37 35 37 38 39 40 39 40 38 36 36 37 38 40 45 46 40 39 42 44 41 36 32 30 31 29 30 32
46 46 41 39 37 37 34 32 30 28 30 24 31 36 35 37 33 37 39 42 43 42 39 39 42 42 43 41 40 41 44 42 41 43 43 38 33 29 28 28 28 29 31
47 45 43 40 36 36 33 29 28 25 33 27 27 35 37 38 36 40 43 44 44 42 39 44 46 46 45 46 42 41 41 41 39 40 36 32 29 26 24 23 26 29 33
46 47 45 40 35 30 34 27 25 23 26 25 20 35 39 41 38 43 45 45 45 42 44 45 47 47 45 47 46 42 40 37 33 30 29 26 24 22 21 24 25 28 29
47 47 45 39 34 29 26 26 24 16 9 14 26 39 39 41 43 44 45 44 42 44 45 45 43 43 46 48 48 46 45 37 37 27 24 23 22 22 24 24 26 27 29
46 48 42 37 29 26 25 23 15 16 24 28 31 32 33 36 37 39 40 39 41 44 45 45 45 45 48 49 49 42 36 27 31 26 24 24 24 23 24 25 26 27 29
48 44 41 35 25 23 20 11 9 18 21 22 26 27 29 31 33 33 33 35 38 41 44 42 44 41 40 37 37 32 30 28 25 24 22 22 23 23 24 25 26 25 23
42 42 38 29 22 17 7 9 13 16 19 20 21 22 23 24 25 25 25 29 33 34 35 36 39 38 30 27 32 33 36 35 31 27 23 24 23 23 22 21 21 17 17
37 31 25 21 14 8 10 12 13 16 16 17 18 20 23 26 25 23 26 23 21 14 3 27 39 33 29 25 24 27 30 27 25 25 23 22 22 21 19 17 15 12 14
23 19 17 16 14 11 11 11 13 15 17 19 21 22 23 24 23 21 20 17 26 32 36 34 32 35 30 28 27 26 24 22 21 21 20 20 19 19 16 12 8 7 10
20 19 17 15 12 10 9 10 12 11 14 17 18 17 17 15 13 27 32 20 17 23 23 25 25 24 27 27 27 25 21 17 19 20 19 19 19 15 8 7 9 12 13
19 19 15 14 12 11 9 10 11 9 9 11 11 12 16 12 11 16 12 12 14 13 17 24 26 25 25 24 19 18 21 20 18 17 17 14 12 9 4 14 17 17 18
16 15 15 13 13 11 3 7 11 9 7 8 8 12 12 14 15 13 11 15 17 21 21 21 22 23 23 21 21 19 18 17 16 14 10 10 13 12 20 28 27 28 29
13 15 17 15 12 11 5 6 9 14 9 5 5 8 9 13 15 16 19 21 21 22 22 24 23 21 20 19 17 15 17 14 12 8 8 11 11 20 27 31 32 33 32
13 16 16 12 12 11 5 6 16 12 15 11 9 9 11 15 15 16 18 18 20 22 21 19 21 20 17 15 16 17 12 11 8 7 9 7 12 20 25 31 34 34 35
14 13 9 9 6 7 6 4 7 10 9 8 9 9 12 16 16 16 19 21 19 18 23 22 17 15 16 15 16 11 12 11 9 10 8 6 8 14 22 25 31 34 34
13 13 9 8 8 7 5 4 5 9 10 10 10 13 14 17 19 19 19 20 21 24 21 15 14 14 14 14 10 9 9 13 13 11 7 7 7 10 17 21 26 31 33
14 12 9 6 8 5 2 3 4 5 8 10 11 16 16 16 17 16 18 20 22 19 15 12 12 14 15 11 10 8 9 15 15 11 8 7 8 11 12 14 18 25 30
16 14 11 5 5 3 1 4 7 8 9 11 14 14 14 13 13 17 20 20 16 12 11 12 13 14 11 10 8 6 6 10 15 10 10 8 7 7 8 10 11 13 18
15 13 12 6 4 3 1 6 7 7 8 10 11 12 11 14 17 22 21 21 13 9 13 12 13 11 9 9 7 6 6 8 13 17 11 7 6 5 6 7 8 11 15
Wind_Direction
325 324 322 321 319 316 314 313 311 304 298 297 297 297 296 293 290 287 285 284 282 283 285 283 279 276 272 269 265 263 261 259 260 264 269 268 268 266 266 266 270 271 274
327 325 323 322 320 319 316 314 315 310 298 296 297 295 295 292 291 286 283 282 281 282 284 284 282 280 273 269 266 262 260 258 258 259 263 264 265 265 264 263 267 271 274
328 327 325 323 321 320 317 316 314 310 302 297 295 293 292 291 291 286 280 278 280 283 285 285 284 281 275 270 266 263 260 261 255 256 258 261 262 264 263 264 266 271 276
330 328 325 323 323 321 318 316 311 307 302 296 295 291 289 289 290 287 283 280 283 284 287 287 285 283 277 272 266 263 259 259 254 252 254 256 258 261 261 262 266 271 275
331 329 326 324 324 321 319 316 312 306 300 296 294 291 287 285 285 285 285 283 283 285 288 289 285 283 278 273 266 261 257 254 253 251 251 253 254 256 256 263 266 272 276
333 330 328 325 324 322 320 317 313 306 300 298 293 289 286 284 282 283 284 282 284 286 289 289 286 282 276 271 265 260 257 252 252 247 249 249 251 254 258 261 266 271 276
334 333 330 328 325 322 322 319 314 308 303 299 296 290 283 282 281 280 281 281 282 286 289 289 283 280 274 271 267 259 255 250 251 248 247 248 251 252 256 260 265 271 276
336 335 332 329 326 326 322 321 318 312 305 301 297 293 287 284 282 278 278 278 279 282 287 282 273 270 262 262 266 260 254 250 247 248 248 249 251 252 255 263 268 274 280
338 337 334 330 326 327 325 321 321 314 305 304 300 293 286 282 280 274 275 275 276 280 284 269 258 256 255 248 260 256 251 249 249 246 246 248 248 250 255 263 269 276 281
339 337 336 331 329 326 330 328 323 319 309 305 303 289 278 274 275 270 268 273 272 278 273 259 255 248 246 245 243 247 247 241 241 237 239 241 242 248 255 266 274 278 284
340 338 337 335 334 331 333 329 332 321 283 235 239 260 260 267 267 258 258 265 261 264 261 256 258 256 247 243 231 230 227 232 226 227 230 235 243 252 262 271 277 281 284
342 342 341 340 339 339 340 340 337 247 244 247 247 244 244 247 248 249 245 241 243 247 248 248 250 251 247 239 226 223 225 228 220 224 230 237 247 258 269 276 280 285 287
344 346 347 348 351 350 350 344 245 242 241 238 241 239 240 243 244 241 237 245 248 247 247 232 243 238 228 222 214 215 219 217 219 223 231 243 254 265 273 281 285 291 298
348 350 352 356 355 357 349 250 240 237 235 233 232 230 234 236 236 237 233 245 251 242 219 208 218 212 218 211 203 197 197 200 208 218 232 242 254 267 276 283 293 303 311
354 356 358 2 356 288 257 245 236 231 223 225 229 235 243 247 244 233 246 230 216 241 169 193 180 189 185 187 189 192 193 202 210 218 229 242 256 266 278 290 304 319 332
342 341 327 310 296 271 251 241 232 234 238 242 246 246 248 249 250 239 227 195 177 172 165 165 167 169 175 179 184 190 197 206 214 222 234 244 251 259 273 306 345 22 15
327 325 321 314 300 284 254 230 237 238 243 250 249 243 232 217 187 82 136 152 136 149 152 159 162 167 173 178 183 190 198 209 211 215 224 232 240 262 317 12 69 63 50
322 321 322 316 304 290 266 218 210 222 245 255 231 203 170 152 64 66 86 113 130 132 151 160 163 167 171 178 183 188 190 196 206 212 219 237 260 268 336 82 91 88 84
327 332 325 317 309 311 253 192 174 182 172 163 85 63 63 58 61 74 127 145 151 157 162 165 166 167 168 170 175 182 190 195 200 210 233 248 225 228 99 135 122 116 123
335 331 326 319 315 313 287 176 164 149 167 138 110 140 140 137 145 146 149 151 152 155 158 159 160 162 165 170 175 183 183 193 201 218 228 212 209 180 164 149 142 147 153
334 329 333 331 330 328 322 155 141 147 144 139 133 136 139 147 146 146 148 151 154 156 157 159 160 163 166 169 170 172 183 189 201 209 200 199 185 174 167 157 149 148 147
332 336 346 341 355 360 10 97 127 136 135 129 131 131 134 141 142 143 148 153 158 159 157 161 165 167 165 164 164 171 176 183 191 189 183 181 178 177 168 171 158 156 153
330 337 348 354 354 1 28 63 112 138 139 139 138 142 142 143 145 147 150 153 152 154 159 162 161 161 161 160 164 165 173 176 180 182 176 164 161 167 164 164 164 161 161
328 332 339 348 350 2 39 98 116 125 142 145 145 148 148 149 153 151 148 149 150 156 158 159 157 157 157 160 159 160 164 164 174 180 175 159 151 157 161 163 166 166 164
331 332 332 333 333 354 70 128 139 142 145 150 154 156 158 159 157 148 145 147 154 155 155 158 158 156 155 152 147 139 138 147 158 180 182 170 152 145 150 154 161 166 169
328 329 331 325 325 327 170 155 155 158 160 163 164 166 170 167 157 145 145 147 156 154 161 159 157 156 156 157 148 135 128 132 142 146 168 174 163 150 153 149 147 161 169